Overview Statistics Trail Chart Weather Telemetry Raw packets
 

This is the latest recevied weather packets stored in our database for station/object DG6YGE-6. If no packets are shown the sender has not sent any weather packets the latest 10 day(s).

<< 19 20 21 22 23 24 25 >>
Time Temp. Humidity Pressure Rain* Wind** Luminosity Snow
1788364750 21.11° C 64% 1017.8 hPa 0 mm - 194 W/m² -
1788364150 20.56° C 63% 1017.8 hPa 0 mm - 174 W/m² -
1788363550 21.11° C 61% 1017.7 hPa 0 mm - 87 W/m² -
1788362950 21.11° C 62% 1017.7 hPa 0 mm - 319 W/m² -
1788362350 21.11° C 61% 1017.9 hPa 0 mm - 243 W/m² -
1788361749 21.11° C 60% 1017.9 hPa 0 mm - 98 W/m² -
1788361150 21.67° C 60% 1017.9 hPa 0 mm - 404 W/m² -
1788360550 21.11° C 62% 1017.9 hPa 0 mm - 432 W/m² -
1788359950 21.67° C 61% 1017.9 hPa 0 mm - 437 W/m² -
1788359350 21.11° C 62% 1018 hPa 0 mm - 482 W/m² -
1788358750 21.11° C 63% 1018 hPa 0 mm - 567 W/m² -
1788358150 20.56° C 63% 1018 hPa 0 mm - 207 W/m² -
1788357550 20.56° C 63% 1018.1 hPa 0 mm - 215 W/m² -
1788356950 20.56° C 64% 1018.1 hPa 0 mm - 128 W/m² -
1788356349 21.11° C 63% 1018.2 hPa 0 mm - 142 W/m² -
1788355749 21.11° C 62% 1018.2 hPa 0 mm - 200 W/m² -
1788355149 21.11° C 62% 1018.1 hPa 0 mm - 604 W/m² -
1788354549 21.11° C 63% 1018.2 hPa 0 mm - 602 W/m² -
1788353950 20.56° C 65% 1018.2 hPa 0 mm - 600 W/m² -
1788353349 20.56° C 67% 1018.1 hPa 0 mm - 605 W/m² -
1788352750 20.56° C 66% 1018.2 hPa 0 mm - 423 W/m² -
1788352149 20° C 66% 1018.3 hPa 0 mm - 354 W/m² -
1788351549 20° C 69% 1018.2 hPa 0 mm - 410 W/m² -
1788350950 19.44° C 68% 1018.2 hPa 0 mm - 199 W/m² -
1788350350 20° C 68% 1018.2 hPa 0 mm - 161 W/m² -

* Rain latest hour (hover to see other rain measurements)
** Current wind speed in m/s (hover to see current wind gust speed)